Regional Weather Roundup
Issued by NWS Little Rock, AR

Home | Current Version | Previous Version | Text Only | Print | Product List | Glossary On
Versions: 1 2 3 4 5 6 7 8 9 10 11 12 13 14 15 16 17 18 19 20 21 22 23 24 25 26 27 28 29 30 31 32 33 34 35 36 37 38 39 40 41 42 43 44 45 46 47 48 49 50
000
ASUS44 KLZK 271905
RWRLZK

WEATHER ROUNDUP FOR ARKANSAS
NATIONAL WEATHER SERVICE LITTLE ROCK AR
200 PM CDT MON MAR 27 2017

NOTE: "FAIR" INDICATES FEW OR NO CLOUDS BELOW 12,000 FEET WITH NO
SIGNIFICANT WEATHER AND/OR OBSTRUCTIONS TO VISIBILITY.

ARZ001-003-010-029-272000-
NORTHWEST ARKANSAS

CITY           SKY/WX    TMP DP  RH WIND       PRES   REMARKS
FAYETTEVILLE   CLOUDY    57  56  96 NW12      29.88S
FORT SMITH     CLOUDY    65  54  67 NW10      29.87S
HARRISON       MOSUNNY   65  55  70 NW13      29.84R
BENTONVILLE    CLOUDY    57  54  88 NW10      29.89S
ROGERS         CLOUDY    57  54  89 W8        29.88S
SILOAM SPGS    CLOUDY    57  50  77 NW13      29.89S
HIGHFILL       CLOUDY    57  55  93 NW8       29.88S
SPRINGDALE     CLOUDY    57  55  94 NW10      29.90R
$$

ARZ004-005-016-272000-
NORTH CENTRAL ARKANSAS

CITY           SKY/WX    TMP DP  RH WIND       PRES   REMARKS
BATESVILLE     SUNNY     70  63  78 NW5       29.80F
FLIPPIN        CLOUDY    64  55  72 N10       29.81R
MTN HOME       CLOUDY    62  56  80 VRB5      29.82S
$$

ARZ040-041-272000-
WEST CENTRAL ARKANSAS

CITY           SKY/WX    TMP DP  RH WIND       PRES   REMARKS
MENA           MOSUNNY   72  63  73 W14       29.86S
MOUNT IDA      SUNNY     78  53  41 VRB7G17   29.80F
$$

ARZ009-017-025-026-028-272000-
NORTHEAST ARKANSAS

CITY           SKY/WX    TMP DP  RH WIND       PRES   REMARKS
CORNING        MOCLDY    59  59 100 NE7       29.82F
JONESBORO      CLOUDY    70  64  81 W10       29.78F
NEWPORT        PTSUNNY   67  63  87 MISG      29.79F
WALNUT RIDGE   PTSUNNY   63  55  77 CALM      29.81F
BLYTHEVILLE    TSTM      60  59  96 NW20G35   29.80F FOG
NW BLYTHEVILLE PTSUNNY   63  61  94 CALM      29.79F THUNDER
$$

ARZ022-023-033-042-044-272000-
CENTRAL ARKANSAS

CITY           SKY/WX    TMP DP  RH WIND       PRES   REMARKS
LITTLE ROCK    MOSUNNY   76  63  64 W17G26    29.81F
N LITTLE ROCK    N/A     76  64  67 SW10G22   29.81F
JACKSONVILLE   SUNNY     78  64  62 SW17G26   29.80F
CONWAY           N/A     79  63  57 SW16G23   29.78F
SEARCY         PTSUNNY   77  64  64 SW13G26   29.80F
HOT SPRINGS    PTSUNNY   76  63  64 W12       29.83F
RUSSELLVILLE   PTSUNNY   72  58  61 W12G22    29.81S
CLINTON        PTSUNNY   73  63  68 W9        29.80F
$$

ARZ036-272000-
EAST ARKANSAS

CITY           SKY/WX    TMP DP  RH WIND       PRES   REMARKS
WEST MEMPHIS   MOSUNNY   78  64  61 SW13G26   29.80F
$$

ARZ050-053-066-070-073-272000-
SOUTHWEST ARKANSAS

CITY           SKY/WX    TMP DP  RH WIND       PRES   REMARKS
ARKADELPHIA    FAIR      77  65  66 SW15      29.83F
CAMDEN         MOSUNNY   79  61  53 SW13G18   29.84F
TEXARKANA      MOSUNNY   78  63  59 SW15      29.85F
EL DORADO      PTSUNNY   79  65  62 S16G23    29.86F
DE QUEEN       SUNNY     73  61  65 SW12      29.84F
$$

ARZ056-057-069-272000-
SOUTHEAST ARKANSAS

CITY           SKY/WX    TMP DP  RH WIND       PRES   REMARKS
PINE BLUFF     PTSUNNY   78  63  59 SW14G28   29.83F
STUTTGART      MOSUNNY   79  61  53 SW21      29.83F
MONTICELLO       N/A    N/A N/A N/A MISG      29.85F

$$





USA.gov is the U.S. government's official web portal to all federal, state and local government web resources and services.